Temperature
18 18 18 18 18 18 18 18 18 18 18 18 18 18 18 18 18 18 18 18 18 18 18 18 18 18 18 18 18 18 17 17 17 17 17 17 17 17 17 17 16 17 17
18 18 18 18 18 18 18 18 18 18 18 18 18 18 18 18 18 18 18 18 18 18 18 18 18 18 18 18 18 18 18 17 17 17 17 17 17 17 17 17 16 16 16
18 18 18 18 18 18 18 18 18 18 18 18 18 18 18 18 18 18 18 18 18 18 18 18 18 18 18 18 18 18 18 17 17 17 17 17 17 17 17 17 16 16 16
18 18 18 18 18 18 18 18 18 18 18 18 18 18 18 18 18 18 18 18 18 18 18 18 18 18 18 18 18 18 18 18 17 17 17 17 17 17 17 17 16 16 16
18 18 18 18 18 18 18 18 18 18 18 18 18 18 18 18 18 18 18 18 18 18 18 18 18 18 18 18 18 18 18 17 17 17 17 17 16 16 16 16 16 16 16
18 18 18 18 18 18 18 18 18 18 18 18 18 18 18 18 18 18 18 18 18 18 18 18 17 17 17 18 17 17 17 17 17 17 17 17 17 16 16 16 16 16 16
18 18 18 18 18 18 18 18 18 18 18 18 18 18 18 18 18 18 18 18 18 18 17 17 17 17 17 17 17 17 17 17 17 17 17 17 17 16 16 16 16 16 16
18 18 18 18 18 18 18 18 18 18 18 18 18 18 18 18 18 18 18 18 18 18 17 17 17 17 17 17 17 17 17 17 17 17 17 17 16 16 16 16 16 16 16
18 18 18 18 18 18 18 18 18 18 18 18 18 18 18 18 18 18 18 18 18 18 17 17 17 17 17 17 17 17 17 17 17 17 17 16 16 16 16 16 16 16 16
18 18 18 18 18 18 18 18 18 18 18 18 18 18 18 18 18 18 18 18 18 18 17 17 17 17 17 17 17 17 17 17 17 17 16 16 16 16 16 16 16 16 16
18 18 17 18 18 17 18 18 18 18 18 18 18 18 18 18 18 18 18 18 18 18 17 17 17 17 17 17 16 17 16 16 16 16 16 16 16 16 16 16 16 16 16
18 17 17 17 17 17 17 17 17 17 18 18 18 18 18 18 18 18 18 18 18 18 17 17 17 17 17 16 16 16 16 16 16 16 16 16 16 16 16 16 16 16 16
17 17 17 17 17 17 17 17 17 17 17 17 18 18 18 18 18 18 18 17 17 17 17 17 17 17 16 16 16 16 16 16 16 16 16 16 16 16 16 16 16 16 16
17 17 17 17 17 17 17 17 17 17 17 17 17 17 17 17 17 17 17 17 17 17 17 17 17 17 16 16 16 16 16 16 16 16 15 16 16 16 16 16 16 16 16
17 17 17 17 17 17 17 17 17 17 17 17 17 17 17 17 17 17 17 17 17 16 16 17 16 16 16 16 16 16 16 15 15 15 15 15 15 15 16 16 16 16 16
17 17 17 17 17 17 17 17 16 16 16 17 17 16 16 16 16 16 17 17 17 17 16 16 16 16 16 16 15 15 15 15 15 15 15 15 15 15 15 15 15 15 15
17 17 16 16 16 16 16 16 16 16 16 16 16 16 16 16 16 16 16 16 16 16 16 16 16 16 16 15 15 15 15 15 15 15 15 15 15 15 15 15 15 15 15
17 16 16 16 16 16 16 16 16 16 16 16 16 16 16 16 16 16 16 16 16 16 16 15 15 15 15 15 15 15 15 15 15 15 15 15 15 15 15 15 15 15 15
16 16 16 16 16 16 16 16 16 16 16 15 15 15 15 15 15 15 15 15 15 15 15 15 15 15 15 15 15 15 15 14 14 14 15 15 15 15 15 15 15 15 15
16 16 16 16 16 16 16 16 16 15 15 15 15 15 15 15 15 15 15 15 15 15 15 15 15 15 15 15 14 14 14 14 14 14 14 14 14 14 15 15 15 15 15
16 16 16 16 16 15 16 16 15 15 15 15 15 15 15 15 15 14 14 14 14 14 14 14 14 14 14 14 14 14 14 14 14 14 14 14 14 14 14 14 14 15 14
16 15 15 15 15 15 15 15 15 15 15 14 14 14 14 14 14 14 14 14 14 14 14 14 14 14 14 14 14 14 14 14 13 14 14 14 14 14 14 14 14 14 14
15 15 15 15 15 15 15 15 15 15 15 14 14 14 14 14 14 14 14 14 14 14 14 14 14 14 14 14 14 14 14 14 14 14 14 14 14 14 14 14 14 14 14
15 15 15 15 15 15 15 15 15 15 14 14 14 14 14 14 14 14 14 14 14 14 14 14 14 14 14 14 14 13 13 13 13 13 14 13 14 14 14 14 14 14 14
15 15 15 15 14 15 15 15 14 14 14 14 14 14 14 13 13 13 13 13 13 14 14 13 13 13 14 14 13 13 13 13 13 13 13 13 13 13 13 13 13 13 13
15 15 15 15 15 15 15 14 14 14 14 14 13 13 13 13 13 13 13 13 13 13 13 13 13 13 13 13 13 13 13 13 13 13 13 13 13 13 13 13 13 13 13
Wind_Speed
1 2 1 1 1 2 2 1 1 0 1 1 1 1 1 2 3 4 6 10 11 10 10 9 9 9 9 9 9 9 10 10 10 10 10 9 9 9 9 9 9 8 9
1 1 1 1 0 1 1 1 1 1 1 1 1 0 1 1 2 5 6 7 9 10 9 9 9 10 9 9 9 9 10 11 11 11 11 10 10 10 9 9 9 8 9
2 1 1 1 1 1 1 1 1 1 2 2 2 1 1 1 2 4 5 6 7 9 9 9 9 10 10 10 10 10 10 10 11 11 11 11 10 9 9 9 9 9 9
2 1 0 0 1 1 1 1 0 0 1 0 1 0 1 2 2 3 4 5 5 5 7 8 9 10 10 10 10 10 10 10 10 11 11 11 10 10 9 9 9 9 9
2 1 0 0 1 1 0 0 1 0 1 0 1 1 1 2 2 3 3 3 4 5 6 8 8 9 9 9 9 9 10 10 11 11 11 11 10 10 10 10 10 10 10
2 1 1 1 1 1 1 1 0 0 1 1 1 0 1 2 2 2 2 3 3 4 6 7 7 7 8 7 8 8 8 9 10 10 10 10 10 10 10 10 10 11 10
2 1 1 1 1 1 1 0 0 1 1 0 0 1 1 2 2 2 2 2 2 3 5 7 7 6 6 7 6 6 7 7 8 9 10 10 10 10 10 10 10 11 11
1 2 0 1 1 2 1 1 1 1 1 1 0 1 1 0 1 2 3 3 2 2 3 4 5 6 6 5 5 5 6 6 6 7 8 9 10 10 10 10 10 10 10
2 1 0 1 0 1 1 2 2 2 2 2 1 1 0 0 1 0 2 3 3 2 1 3 4 5 6 5 5 5 6 6 6 6 7 7 8 9 10 10 10 10 10
2 1 0 0 1 0 0 2 2 1 2 2 1 1 1 1 1 1 0 1 3 2 1 1 3 4 6 6 6 7 7 6 5 5 6 6 6 6 7 9 10 10 10
2 1 1 1 1 1 1 2 0 1 2 2 2 1 1 1 2 2 1 1 1 2 2 2 2 3 5 6 7 8 8 6 6 5 5 5 5 6 6 8 9 10 10
2 1 1 1 1 1 2 2 2 2 2 2 2 2 2 1 1 1 1 1 1 1 2 1 2 2 4 5 6 9 9 8 7 6 5 5 5 5 5 6 7 9 10
2 2 2 1 2 2 2 2 2 2 2 2 2 3 2 2 2 1 1 1 1 1 0 1 1 3 4 6 7 8 9 9 8 7 6 6 5 5 5 6 6 7 9
2 3 2 2 2 2 2 1 2 2 2 2 3 2 2 2 2 1 1 1 1 1 1 1 1 2 4 6 8 8 7 9 8 7 6 6 5 5 5 5 5 6 7
1 1 1 1 1 1 2 1 2 2 1 2 2 2 2 2 2 2 2 2 2 2 2 2 1 2 4 5 7 6 6 8 8 7 7 7 6 6 6 5 5 5 6
1 0 1 1 1 1 1 2 2 2 2 2 2 2 2 3 2 2 2 2 2 2 2 2 1 1 2 4 6 6 6 9 9 9 9 8 8 7 7 7 6 6 5
1 1 1 2 2 2 2 2 3 2 2 3 3 2 2 3 2 2 2 2 1 1 2 2 1 1 2 2 3 3 5 6 7 9 10 10 10 9 9 9 8 7 7
2 2 2 2 3 2 2 2 3 3 2 3 3 2 2 3 2 2 2 2 2 2 2 3 2 2 2 3 3 3 3 4 5 9 11 11 11 11 11 10 10 9 8
2 3 3 3 3 2 3 2 2 3 3 3 3 3 3 3 3 2 2 2 2 3 2 3 3 2 2 2 2 3 3 2 4 7 10 11 12 12 12 12 12 11 10
3 3 3 3 3 3 2 2 2 3 3 2 3 3 3 3 3 3 3 3 3 3 3 3 3 3 3 3 3 3 3 3 3 4 4 7 9 12 12 12 12 12 11
4 3 3 3 3 3 3 2 3 3 2 3 3 3 3 3 3 3 4 3 3 3 4 4 3 3 3 3 3 3 4 3 3 3 3 4 5 5 7 10 11 12 12
3 3 3 3 4 4 2 1 2 3 3 4 4 3 3 2 2 3 4 4 4 5 5 4 4 4 4 3 2 3 3 2 3 3 3 4 3 4 5 7 10 13 13
3 3 3 3 4 3 2 2 2 3 4 4 4 3 4 3 2 2 4 5 5 6 6 5 5 5 4 4 4 4 4 4 4 3 3 4 3 4 3 6 12 14 14
3 4 4 4 4 4 4 3 3 4 4 4 4 4 3 3 3 3 4 4 4 5 6 6 6 6 6 4 5 5 5 5 3 3 3 4 3 3 3 4 10 14 15
4 4 4 4 4 4 5 4 3 3 4 4 5 3 3 3 3 3 4 4 4 5 5 5 6 6 7 7 5 3 3 4 4 3 3 3 3 3 2 2 6 12 14
4 5 5 4 5 4 6 6 5 3 3 3 3 2 3 3 3 3 3 3 4 4 4 4 4 5 7 8 9 7 5 5 4 3 3 2 2 1 2 2 3 5 8
Wind_Direction
124 108 118 150 145 140 161 169 104 115 304 257 199 120 71 64 113 132 137 162 171 173 175 181 186 185 185 187 188 191 191 190 190 189 188 189 192 193 197 199 201 203 202
98 110 143 150 151 142 139 139 161 221 246 231 242 134 143 134 135 140 147 161 173 174 178 184 188 188 189 192 194 194 194 195 194 195 196 197 197 199 200 202 203 201 199
117 116 156 154 152 190 173 178 191 204 227 207 180 188 159 134 135 140 154 163 169 175 178 181 188 191 192 197 198 199 200 199 199 198 197 199 200 201 203 205 206 205 200
161 210 185 116 205 187 183 158 167 259 290 239 150 175 127 141 141 136 150 159 168 166 170 181 186 189 192 196 197 198 197 197 196 194 195 197 198 201 204 204 204 203 198
175 185 186 268 228 146 78 274 119 58 282 314 205 195 161 145 154 152 153 153 162 164 154 164 180 185 190 194 196 198 198 198 198 199 199 200 203 204 204 205 204 200 198
175 213 191 216 200 124 101 51 63 214 257 253 284 115 155 167 147 145 168 156 158 164 153 152 168 181 183 185 192 196 197 201 201 200 201 201 204 204 204 205 203 199 197
190 218 283 150 141 115 104 105 47 264 251 157 308 317 252 179 150 149 142 144 143 145 144 152 160 160 167 178 179 189 194 194 196 200 200 200 201 203 203 203 202 197 198
222 205 236 239 144 141 157 203 187 271 274 177 212 301 306 99 261 169 152 158 146 138 140 155 153 151 158 145 164 174 181 189 192 198 200 203 204 204 205 203 198 198 200
198 261 153 306 283 170 165 200 246 228 259 240 192 182 179 218 292 158 157 141 142 148 158 147 152 158 153 144 152 164 173 178 187 197 197 197 204 207 211 203 198 199 199
194 175 149 338 319 335 179 232 202 264 258 274 234 224 202 176 221 230 243 156 161 163 166 150 134 148 146 140 139 145 163 177 185 190 192 196 199 204 200 199 202 205 206
183 166 148 181 257 278 255 268 289 263 276 286 288 276 227 223 232 226 231 199 195 170 158 148 129 124 135 143 143 143 149 154 157 162 177 192 197 201 193 201 208 209 208
188 197 186 192 237 247 255 268 269 246 272 300 305 303 292 280 254 235 241 248 226 197 151 147 141 135 140 143 145 144 152 153 150 148 158 165 173 184 195 200 208 209 208
186 184 213 197 241 244 240 248 242 244 249 262 279 287 294 296 299 268 235 262 297 299 182 177 156 148 150 133 133 143 157 158 159 161 162 164 168 181 194 204 212 216 214
196 183 190 197 239 256 254 232 261 248 241 256 263 271 282 287 293 284 247 227 258 287 275 222 183 155 137 132 143 151 151 161 164 167 171 178 180 185 192 198 209 218 216
241 149 157 196 233 251 279 265 263 276 272 268 277 270 272 277 277 287 278 240 228 256 275 245 198 157 139 133 151 156 153 167 172 179 185 191 192 193 198 201 206 210 215
271 180 205 211 229 247 271 272 267 262 259 269 278 279 277 285 286 270 275 283 267 242 264 273 262 160 140 161 166 166 166 175 184 192 195 198 200 201 203 204 206 209 213
219 193 208 226 221 226 241 257 275 276 263 271 276 269 273 280 292 295 283 283 271 232 237 270 295 213 174 169 158 175 184 184 192 200 203 205 207 208 208 208 207 210 215
239 210 215 238 244 235 239 245 262 280 269 267 270 271 267 275 278 288 285 274 268 243 212 234 257 242 207 185 182 203 198 202 198 205 204 208 210 211 211 211 211 212 213
241 240 230 231 243 249 247 251 251 267 267 270 273 266 260 266 268 275 277 268 266 260 229 221 243 236 216 203 198 213 212 219 229 212 208 211 213 215 215 214 213 213 212
237 242 242 240 237 241 246 249 255 254 257 267 273 268 262 256 252 254 259 255 253 262 255 233 227 220 213 207 202 211 222 227 235 233 218 208 206 212 217 216 215 214 213
238 240 245 249 248 236 239 236 253 257 264 265 267 269 265 258 249 250 260 257 258 257 258 252 232 234 230 211 214 214 226 229 229 235 226 211 190 201 214 218 217 214 212
238 242 240 247 255 256 236 221 249 272 264 261 265 270 268 239 229 235 266 263 253 247 249 253 254 242 242 242 235 235 234 234 244 236 227 233 201 203 198 206 207 204 205
223 230 237 239 238 236 208 219 240 266 266 262 262 263 270 265 234 248 251 253 255 251 241 241 252 254 246 244 241 245 241 237 238 236 237 241 222 219 202 205 193 196 199
235 239 237 234 237 226 208 218 229 252 261 262 259 246 247 262 264 264 262 258 257 255 244 238 243 251 245 237 235 235 242 249 245 237 229 242 239 233 220 188 192 194 200
238 239 236 233 236 221 210 208 210 253 256 264 263 249 231 242 255 258 253 258 267 271 266 249 234 237 233 235 230 230 240 244 250 247 235 233 236 242 225 206 203 200 202
242 248 246 239 240 229 211 207 204 239 257 271 270 246 234 242 247 252 252 260 267 274 275 273 260 245 235 227 218 214 221 234 245 250 240 232 235 228 251 236 201 204 210
Height
1528 1528 1529 1529 1530 1530 1530 1530 1530 1530 1531 1532 1532 1532 1533 1533 1534 1534 1535 1536 1537 1538 1538 1539 1540 1541 1542 1544 1545 1546 1547 1549 1550 1552 1553 1554 1555 1557 1558 1560 1561 1562 1563
1528 1528 1529 1529 1530 1530 1530 1530 1530 1530 1530 1531 1531 1532 1532 1533 1533 1534 1535 1535 1536 1537 1537 1538 1538 1539 1540 1542 1543 1545 1546 1547 1549 1550 1551 1552 1554 1555 1556 1558 1559 1560 1561
1528 1528 1529 1529 1530 1530 1530 1530 1530 1530 1530 1530 1531 1532 1532 1532 1533 1534 1534 1535 1536 1536 1537 1537 1537 1538 1539 1540 1542 1543 1544 1546 1547 1548 1549 1550 1552 1553 1554 1556 1557 1558 1559
1528 1528 1529 1529 1530 1530 1530 1530 1529 1529 1529 1530 1530 1531 1532 1532 1533 1533 1534 1534 1535 1536 1536 1536 1537 1538 1538 1539 1540 1541 1543 1544 1545 1546 1547 1548 1550 1551 1552 1553 1554 1555 1557
1527 1528 1528 1529 1529 1529 1529 1529 1529 1529 1529 1530 1530 1531 1531 1532 1532 1533 1534 1534 1535 1535 1535 1536 1536 1537 1537 1538 1539 1540 1541 1542 1543 1544 1545 1546 1547 1548 1550 1551 1552 1553 1554
1527 1527 1528 1528 1529 1529 1529 1529 1529 1529 1530 1530 1531 1531 1531 1532 1532 1532 1533 1533 1534 1534 1535 1535 1535 1536 1536 1537 1537 1538 1539 1540 1541 1542 1543 1544 1545 1546 1547 1548 1549 1550 1552
1526 1527 1527 1528 1528 1528 1528 1528 1529 1529 1530 1530 1530 1530 1530 1531 1531 1531 1532 1533 1533 1534 1534 1534 1534 1534 1535 1535 1536 1536 1537 1538 1539 1540 1541 1542 1543 1544 1545 1545 1547 1548 1550
1525 1526 1526 1527 1527 1528 1528 1528 1528 1529 1529 1530 1530 1530 1530 1532 1531 1531 1531 1532 1533 1533 1533 1533 1533 1533 1533 1533 1534 1534 1535 1536 1537 1538 1539 1539 1540 1541 1542 1543 1544 1546 1547
1524 1525 1525 1526 1526 1527 1527 1527 1527 1528 1528 1529 1530 1530 1530 1530 1530 1531 1531 1531 1532 1532 1532 1532 1532 1532 1532 1532 1532 1533 1533 1534 1535 1535 1536 1537 1538 1539 1540 1541 1542 1543 1545
1523 1524 1524 1525 1525 1526 1526 1526 1527 1527 1528 1528 1529 1529 1530 1530 1530 1531 1531 1531 1531 1531 1531 1531 1530 1530 1530 1530 1530 1531 1531 1532 1533 1533 1534 1535 1536 1537 1538 1539 1540 1541 1543
1522 1522 1523 1523 1524 1524 1525 1525 1526 1526 1526 1527 1527 1528 1529 1529 1529 1529 1529 1530 1530 1530 1529 1529 1529 1528 1528 1528 1529 1529 1530 1530 1531 1531 1532 1533 1533 1534 1535 1536 1538 1539 1540
1520 1521 1521 1522 1522 1523 1523 1524 1524 1524 1525 1525 1526 1526 1527 1527 1527 1528 1528 1528 1528 1528 1528 1527 1527 1527 1527 1527 1527 1527 1528 1529 1529 1529 1530 1530 1531 1532 1533 1534 1535 1537 1538
1519 1519 1520 1520 1521 1521 1521 1522 1522 1523 1523 1523 1524 1524 1525 1525 1526 1526 1526 1526 1526 1526 1526 1526 1526 1526 1526 1526 1526 1526 1527 1527 1527 1528 1528 1528 1529 1530 1531 1532 1533 1534 1535
1518 1518 1518 1518 1519 1519 1520 1520 1520 1521 1521 1522 1522 1522 1523 1523 1524 1524 1524 1525 1524 1524 1525 1525 1524 1524 1524 1524 1524 1525 1525 1525 1526 1526 1526 1527 1527 1528 1528 1529 1530 1531 1532
1516 1516 1516 1516 1517 1517 1518 1518 1518 1519 1519 1520 1520 1520 1520 1521 1521 1522 1522 1522 1523 1522 1522 1522 1523 1522 1522 1522 1522 1522 1523 1523 1524 1524 1524 1525 1525 1525 1526 1527 1527 1528 1529
1514 1514 1514 1514 1515 1515 1516 1516 1516 1517 1517 1517 1517 1518 1518 1518 1518 1519 1519 1519 1520 1520 1519 1520 1520 1521 1520 1520 1520 1520 1521 1521 1521 1522 1522 1522 1523 1523 1523 1524 1524 1525 1526
1512 1512 1512 1512 1513 1513 1513 1514 1514 1514 1514 1514 1515 1515 1515 1515 1515 1515 1516 1516 1516 1517 1516 1517 1518 1518 1519 1519 1518 1518 1518 1519 1519 1519 1520 1520 1520 1520 1520 1521 1522 1522 1523
1509 1510 1510 1510 1510 1511 1511 1511 1511 1512 1512 1512 1512 1512 1511 1512 1512 1512 1512 1513 1513 1514 1514 1514 1515 1516 1516 1516 1516 1516 1516 1516 1516 1516 1517 1517 1517 1517 1518 1518 1519 1519 1520
1506 1507 1507 1508 1508 1508 1508 1508 1508 1509 1509 1509 1509 1509 1508 1508 1508 1508 1509 1509 1510 1511 1511 1511 1511 1513 1513 1513 1513 1514 1514 1514 1514 1514 1514 1514 1514 1514 1515 1515 1516 1516 1517
1503 1504 1504 1505 1505 1505 1506 1506 1506 1506 1505 1505 1505 1505 1505 1505 1505 1505 1505 1506 1506 1507 1508 1508 1508 1509 1510 1510 1511 1510 1510 1510 1510 1511 1511 1511 1511 1511 1511 1512 1512 1513 1514
1501 1501 1501 1502 1502 1502 1503 1503 1503 1503 1502 1502 1502 1502 1502 1502 1502 1502 1502 1502 1503 1503 1504 1505 1505 1506 1506 1507 1507 1507 1507 1507 1507 1508 1507 1508 1508 1508 1508 1508 1509 1510 1511
1497 1498 1498 1498 1499 1500 1500 1500 1499 1499 1499 1499 1499 1499 1499 1499 1498 1499 1499 1499 1500 1500 1500 1501 1501 1502 1502 1503 1503 1504 1504 1504 1504 1505 1505 1504 1505 1505 1505 1505 1506 1507 1507
1494 1494 1494 1495 1495 1496 1496 1496 1496 1496 1496 1496 1496 1495 1496 1496 1496 1495 1495 1495 1496 1497 1497 1497 1497 1497 1498 1499 1500 1500 1500 1500 1500 1501 1502 1501 1502 1502 1502 1502 1503 1504 1504
1491 1491 1491 1491 1491 1492 1492 1493 1493 1493 1492 1492 1492 1492 1492 1492 1492 1492 1492 1492 1492 1493 1493 1494 1493 1494 1494 1495 1496 1496 1496 1497 1497 1498 1499 1498 1499 1499 1499 1500 1500 1501 1501
1489 1489 1488 1488 1488 1488 1489 1489 1490 1490 1489 1489 1489 1489 1489 1489 1489 1489 1489 1488 1488 1489 1489 1490 1490 1490 1490 1491 1491 1492 1493 1493 1493 1493 1495 1495 1495 1496 1496 1497 1497 1498 1498
1485 1486 1485 1486 1486 1486 1486 1486 1487 1487 1486 1486 1486 1486 1486 1486 1486 1486 1485 1485 1484 1485 1485 1485 1485 1486 1486 1486 1487 1488 1488 1489 1489 1490 1490 1491 1492 1492 1493 1493 1494 1494 1494